GW5901 Weather Reports


time (UTC)temp
F
wind
direction
speed
knots
gust
knots
rain 1hr
in
rain 24hr
in
rain mn
in
humidity
%
barometer
mb
20260505153123 62 49 0.0 0.0 0.00 0.61 0.61 98 1007.4
20260505152620 62 44 0.9 0.9 0.00 0.61 0.61 98 1007.4
20260505152116 62 44 0.0 0.0 0.00 0.61 0.61 98 1007.2
20260505151611 61 35 0.0 0.0 0.00 0.61 0.61 99 1007.9
20260505151108 62 24 0.9 1.7 0.00 0.61 0.61 99 1007.5
20260505150604 62 19 0.9 0.9 0.00 0.61 0.61 99 1007.6
20260505140530 60 31 0.0 0.0 0.00 0.61 0.61 99 1008.1
20260505124943 59 56 0.0 0.0 0.00 0.61 0.61 99 1008.1
20260505124440 59 59 0.0 0.0 0.00 0.61 0.61 99 1008.0
20260505123936 59 59 0.0 0.0 0.00 0.61 0.61 99 1007.9
20260505123433 59 36 0.0 0.0 0.00 0.61 0.61 99 1008.0
20260505122929 59 48 0.0 0.0 0.00 0.61 0.61 99 1007.9
20260505122426 59 47 0.0 0.0 0.00 0.61 0.61 99 1007.8
20260505121923 59 85 1.7 1.7 0.00 0.61 0.61 99 1007.5
20260505121420 59 14 0.9 1.7 0.00 0.61 0.61 99 1007.1
20260505120916 59 26 0.0 0.0 0.00 0.61 0.61 99 1006.8
20260505120413 59 47 0.0 0.0 0.00 0.61 0.61 99 1006.8
20260505115912 59 30 0.0 0.0 0.00 0.61 0.61 99 1006.9
20260505115408 59 25 0.0 0.0 0.00 0.61 0.61 99 1006.6
20260505114907 59 24 0.0 0.0 0.00 0.61 0.61 99 1006.6
20260505114402 59 25 0.0 0.0 0.00 0.61 0.61 99 1006.6
20260505113859 59 38 0.0 0.0 0.00 0.61 0.61 99 1006.6
20260505113355 59 22 0.9 0.9 0.00 0.61 0.61 99 1006.9
20260505112851 59 25 0.0 0.0 0.00 0.61 0.61 99 1006.4
20260505112349 59 16 0.9 1.7 0.00 0.61 0.61 99 1006.8
20260505111845 59 24 0.0 0.0 0.00 0.61 0.61 99 1006.7
20260505111340 59 26 0.9 0.9 0.00 0.61 0.61 99 1006.4
20260505110836 59 32 0.0 0.0 0.00 0.61 0.61 99 1006.8
20260505110334 59 35 0.0 0.0 0.05 0.61 0.61 99 1006.9
20260505101809 60 51 0.0 0.0 0.07 0.57 0.57 99 1008.2
20260505101304 60 50 0.9 0.9 0.07 0.57 0.57 99 1007.8
20260505100800 60 49 0.0 0.0 0.17 0.56 0.56 99 1007.7
20260505100257 60 50 0.9 0.9 0.40 0.56 0.56 99 1007.8
20260505095753 59 49 0.0 0.0 0.35 0.54 0.54 99 1007.7
20260505095251 60 64 0.0 0.0 0.07 0.49 0.49 99 1007.5
20260505094746 60 44 0.0 0.0 0.05 0.48 0.48 99 1008.2
20260505094243 60 44 0.0 0.0 0.12 0.48 0.48 99 1007.8
20260505093739 59 44 0.0 0.0 0.19 0.47 0.47 99 1007.1
20260505093237 60 48 0.0 0.0 0.19 0.46 0.46 99 1007.3
20260505092733 60 69 0.9 0.9 0.19 0.44 0.44 99 1007.6
20260505092232 60 36 0.0 0.0 0.28 0.43 0.43 98 1008.0
20260505091729 60 42 0.0 0.0 0.35 0.42 0.42 98 1007.6
20260505091227 59 50 0.0 0.0 0.31 0.38 0.38 98 1007.6
20260505090724 59 48 0.9 0.9 0.31 0.36 0.36 98 1007.9
20260505090223 59 24 0.0 0.0 0.31 0.33 0.33 98 1008.8
20260505085719 59 31 0.0 0.0 0.35 0.31 0.31 98 1008.5
20260505085218 59 25 0.0 0.0 0.59 0.28 0.28 98 1008.3
20260505084715 59 23 0.0 0.0 0.97 0.25 0.25 97 1008.3
20260505084214 59 14 0.9 0.9 0.78 0.19 0.19 97 1008.5
20260505083710 59 11 0.9 0.9 0.31 0.10 0.10 97 1008.5
20260505083207 59 12 0.0 0.0 0.07 0.05 0.05 96 1007.8
20260505082703 59 44 0.0 0.0 0.07 0.05 0.05 96 1007.8
20260505082200 59 39 0.0 0.0 0.05 0.04 0.04 95 1007.6
20260505081655 59 26 0.0 0.0 0.12 0.04 0.04 95 1007.8
20260505081153 59 41 0.0 0.0 0.07 0.03 0.03 94 1007.7
20260505080650 60 43 0.0 0.0 0.12 0.03 0.03 94 1007.6
20260505080146 60 67 0.9 0.9 0.12 0.02 0.02 93 1007.5
20260505075642 60 61 0.9 0.9 0.07 0.01 0.01 92 1007.7
20260505075139 60 69 0.9 0.9 0.00 0.00 0.00 90 1007.7
20260505074636 60 31 0.0 0.0 0.00 0.00 0.00 91 1007.7
20260505074133 61 35 0.0 0.0 0.00 0.00 0.00 90 1007.8
20260505073631 61 39 0.0 0.0 0.00 0.00 0.00 88 1008.0
20260505073129 62 56 0.0 0.9 0.00 0.00 0.00 85 1007.2
20260505072624 62 23 0.9 1.7 0.00 0.00 0.00 84 1007.2
20260505072121 62 30 0.0 0.0 0.00 0.00 0.00 81 1007.2
20260505071617 62 30 0.0 0.0 0.00 0.00 0.00 82 1007.7
20260505071115 62 30 0.0 0.0 0.00 0.00 0.00 80 1007.5
20260505070612 62 30 0.0 0.0 0.00 0.00 0.00 80 1007.5
20260505070108 63 30 0.0 0.0 0.00 0.00 0.00 79 1007.5
20260505065604 63 30 0.0 0.0 0.00 0.00 0.00 80 1007.6
20260505065100 62 30 0.0 0.0 0.00 0.00 0.00 81 1007.7
20260505064557 62 30 0.0 0.0 0.00 0.00 0.00 81 1007.4
20260505064056 62 30 0.0 0.0 0.00 0.00 0.00 81 1007.7
20260505063553 62 30 0.0 0.0 0.00 0.00 0.00 80 1007.7
20260505063049 62 30 0.0 0.0 0.00 0.00 0.00 80 1007.8
20260505062545 62 30 0.0 0.0 0.00 0.00 0.00 81 1008.1
20260505062043 62 30 0.0 0.0 0.00 0.00 0.00 80 1007.9
20260505061540 62 30 0.0 0.0 0.00 0.00 0.00 79 1008.1
20260505061038 62 30 0.0 0.0 0.00 0.00 0.00 79 1008.2
20260505060535 63 30 0.0 0.0 0.00 0.00 0.00 79 1008.7
20260505060032 63 30 0.0 0.0 0.00 0.00 0.00 78 1008.3
20260505055527 63 30 0.0 0.0 0.00 0.00 0.00 78 1008.3
20260505055024 63 30 0.0 0.0 0.00 0.00 0.00 78 1008.2
20260505054521 63 29 0.9 0.9 0.00 0.00 0.00 78 1008.4
20260505054019 63 33 0.0 0.0 0.00 0.00 0.00 78 1008.0
20260505053516 63 34 0.0 0.0 0.00 0.00 0.00 78 1008.0
20260505053013 63 34 0.0 0.0 0.00 0.00 0.00 77 1007.9
20260505052510 63 31 0.9 0.9 0.00 0.00 0.00 77 1008.1
20260505052007 63 29 0.0 0.0 0.00 0.00 0.00 77 1008.2
20260505051504 63 33 0.9 0.9 0.00 0.00 0.00 77 1008.3
20260505051002 63 34 0.0 0.0 0.00 0.00 0.00 77 1008.5
20260505050500 63 34 0.0 0.0 0.00 0.00 0.00 76 1008.5
20260505041427 65 34 0.0 0.0 0.00 0.00 0.00 72 1009.1
20260505040925 65 34 0.0 0.0 0.00 0.00 0.00 72 1009.2
20260505040422 66 33 0.0 0.0 0.00 0.00 0.00 71 1009.1
20260505035919 66 33 0.0 0.0 0.00 0.00 0.00 71 1009.2
20260505035415 66 33 0.0 0.0 0.00 0.00 0.00 71 1009.1
20260505034912 66 33 0.0 0.0 0.00 0.00 0.00 71 1009.3
20260505034409 66 33 0.0 0.0 0.00 0.00 0.00 70 1009.3
20260505033906 66 33 0.0 0.0 0.00 0.00 0.00 70 1009.3
20260505033402 66 33 0.0 0.0 0.00 0.00 0.00 70 1009.4
20260505032901 66 33 0.0 0.0 0.00 0.00 0.00 71 1009.2
20260505032357 66 33 0.0 0.0 0.00 0.00 0.00 70 1009.2
20260505031854 66 33 0.0 0.0 0.00 0.00 0.00 70 1009.3
20260505031351 66 33 0.0 0.0 0.00 0.00 0.00 70 1009.2
20260505030848 66 33 0.0 0.0 0.00 0.00 0.00 71 1009.3
20260505030344 66 33 0.0 0.0 0.00 0.00 0.00 70 1009.3
20260505025839 66 33 0.0 0.0 0.00 0.00 0.00 70 1009.3
20260505025337 66 33 0.0 0.0 0.00 0.00 0.00 70 1009.5
20260505024836 67 33 0.0 0.0 0.00 0.00 0.00 69 1009.0
20260505024333 67 33 0.0 0.0 0.00 0.00 0.00 69 1009.3
20260505023830 67 33 0.0 0.0 0.00 0.00 0.00 69 1009.3
20260505023327 67 33 0.0 0.0 0.00 0.00 0.00 68 1009.2
20260505022824 67 33 0.0 0.0 0.00 0.00 0.00 68 1009.0
20260505022321 68 34 0.0 0.0 0.00 0.00 0.00 67 1008.7
20260505021818 68 33 0.0 0.0 0.00 0.00 0.00 67 1008.8
20260505021315 68 28 0.0 0.0 0.00 0.00 0.00 67 1008.3
20260505020810 68 20 0.0 0.9 0.00 0.00 0.00 66 1008.5
20260505020306 69 34 0.0 0.0 0.00 0.00 0.00 65 1008.4
20260505015803 69 37 0.0 0.0 0.00 0.00 0.00 65 1008.3
20260505015300 69 39 0.0 0.0 0.00 0.00 0.00 64 1008.3
20260505014758 69 85 0.9 1.7 0.00 0.00 0.00 63 1008.3
20260505014255 70 33 0.0 0.0 0.00 0.00 0.00 62 1008.1
20260505013751 70 15 0.9 0.9 0.00 0.00 0.00 62 1008.0
20260505013248 70 41 0.9 0.9 0.00 0.00 0.00 62 1007.8
20260505012747 70 2 0.9 0.9 0.00 0.00 0.00 62 1007.8
20260505012243 70 16 0.9 0.9 0.00 0.00 0.00 62 1007.8
20260505011739 70 6 0.9 1.7 0.00 0.00 0.00 63 1007.8
20260505011237 70 14 0.9 0.9 0.00 0.00 0.00 63 1007.6
20260505010732 70 351 0.9 0.9 0.00 0.00 0.00 62 1007.6
20260505010228 71 32 0.0 0.0 0.00 0.00 0.00 62 1007.6
20260505005725 71 37 0.0 0.0 0.00 0.00 0.00 63 1007.6
20260505005222 71 44 0.0 0.9 0.00 0.00 0.00 64 1007.5
20260505004719 71 26 0.0 0.0 0.00 0.00 0.00 62 1007.4
20260505004216 72 21 0.0 0.0 0.00 0.00 0.00 61 1007.6
20260505003713 72 25 0.0 0.0 0.00 0.00 0.00 60 1007.3
20260505003211 72 24 0.9 0.9 0.00 0.00 0.00 59 1007.3
20260505002707 73 49 0.0 0.0 0.00 0.00 0.00 58 1007.2
20260505002205 73 3 0.9 0.9 0.00 0.00 0.00 58 1007.2
20260505001701 73 7 0.9 0.9 0.00 0.00 0.00 58 1007.1
20260505001159 73 12 0.9 0.9 0.00 0.00 0.00 57 1007.2
20260505000656 73 347 0.9 0.9 0.00 0.00 0.00 57 1006.9
20260505000154 73 19 0.0 0.0 0.00 0.00 0.00 57 1007.0
20260504235650 74 17 0.0 0.0 0.00 0.00 0.00 57 1007.0
20260504235146 74 21 0.0 0.0 0.00 0.00 0.00 57 1006.9
20260504234644 74 16 0.0 0.0 0.00 0.00 0.00 56 1007.2
20260504234141 74 36 0.0 0.0 0.00 0.00 0.00 56 1007.1
20260504233637 74 15 0.9 0.9 0.00 0.00 0.00 56 1007.2
20260504233133 75 20 0.9 0.9 0.00 0.00 0.00 55 1007.4
20260504232631 75 16 2.6 4.3 0.00 0.00 0.00 54 1007.5
20260504232127 75 7 0.9 0.9 0.00 0.00 0.00 54 1007.3
20260504231624 75 42 0.0 0.9 0.00 0.00 0.00 54 1007.5
20260504231120 75 28 0.0 0.9 0.00 0.00 0.00 53 1007.6
20260504230616 76 109 0.9 2.6 0.00 0.00 0.00 53 1007.5
20260504230115 76 353 0.9 0.9 0.00 0.00 0.00 52 1007.6
20260504225613 76 104 1.7 1.7 0.00 0.00 0.00 52 1007.6
20260504225109 76 311 0.9 1.7 0.00 0.00 0.00 52 1007.4
20260504224606 76 346 0.9 1.7 0.00 0.00 0.00 50 1007.4
20260504224103 77 304 0.9 1.7 0.00 0.00 0.00 50 1007.6
20260504223600 77 146 1.7 1.7 0.00 0.00 0.00 49 1007.7
20260504223055 77 187 2.6 2.6 0.00 0.00 0.00 50 1007.5
20260504222553 77 50 1.7 2.6 0.00 0.00 0.00 51 1007.8
20260504222050 77 285 2.6 4.3 0.00 0.00 0.00 50 1007.7
20260504221547 78 224 1.7 2.6 0.00 0.00 0.00 49 1007.8
20260504221044 78 329 0.9 0.9 0.00 0.00 0.00 48 1007.8
20260504220540 78 299 2.6 2.6 0.00 0.00 0.00 48 1007.7
20260504220037 79 72 1.7 2.6 0.00 0.00 0.00 50 1007.8
20260504215534 78 81 0.9 1.7 0.00 0.00 0.00 49 1007.7
20260504215032 78 294 1.7 1.7 0.00 0.00 0.00 49 1007.7
20260504214527 78 10 0.0 0.0 0.00 0.00 0.00 49 1007.9
20260504214024 78 342 2.6 4.3 0.00 0.00 0.00 47 1007.8
20260504213521 78 199 2.6 2.6 0.00 0.00 0.00 47 1007.7
20260504213018 78 230 3.5 4.3 0.00 0.00 0.00 45 1007.7
20260504212513 78 169 2.6 2.6 0.00 0.00 0.00 46 1008.0
20260504212011 78 62 1.7 1.7 0.00 0.00 0.00 46 1008.0
20260504211508 78 264 2.6 4.3 0.00 0.00 0.00 46 1008.3
20260504211005 78 224 2.6 2.6 0.00 0.00 0.00 46 1008.1
20260504210502 78 264 2.6 2.6 0.00 0.00 0.00 46 1008.1
20260504205958 78 312 1.7 1.7 0.00 0.00 0.00 47 1008.3
20260504205456 78 268 1.7 2.6 0.00 0.00 0.00 47 1008.2
20260504204954 78 301 2.6 2.6 0.00 0.00 0.00 48 1008.3
20260504204452 79 323 3.5 6.1 0.00 0.00 0.00 47 1008.1
20260504203951 79 185 1.7 1.7 0.00 0.00 0.00 48 1008.3
20260504203448 78 293 2.6 2.6 0.00 0.00 0.00 48 1008.4
20260504202944 78 317 1.7 1.7 0.00 0.00 0.00 47 1008.7
20260504202441 79 176 2.6 2.6 0.00 0.00 0.00 47 1008.5
20260504201938 79 188 2.6 2.6 0.00 0.00 0.00 48 1008.7
20260504201435 79 229 2.6 2.6 0.00 0.00 0.00 48 1008.7
20260504200932 78 208 2.6 2.6 0.00 0.00 0.00 49 1008.9
20260504200429 78 230 2.6 2.6 0.00 0.00 0.00 48 1008.9
20260504195926 78 227 3.5 4.3 0.00 0.00 0.00 48 1009.1
20260504195422 78 297 2.6 2.6 0.00 0.00 0.00 48 1009.1
20260504194918 78 247 3.5 4.3 0.00 0.00 0.00 48 1009.2
20260504194414 79 249 3.5 4.3 0.00 0.00 0.00 47 1009.1
20260504193910 78 192 2.6 2.6 0.00 0.00 0.00 48 1009.1
20260504193408 79 222 2.6 4.3 0.00 0.00 0.00 48 1009.1
20260504192907 79 170 4.3 7.0 0.00 0.00 0.00 48 1009.3
20260504192403 79 203 2.6 2.6 0.00 0.00 0.00 47 1009.1
20260504191902 79 5 1.7 1.7 0.00 0.00 0.00 47 1009.5
20260504191400 79 266 2.6 2.6 0.00 0.00 0.00 47 1009.3
20260504190855 78 309 2.6 2.6 0.00 0.00 0.00 47 1009.4
20260504190351 78 238 2.6 2.6 0.00 0.00 0.00 48 1009.5
20260504185848 78 214 3.5 4.3 0.00 0.00 0.00 48 1009.3
20260504185345 78 282 1.7 1.7 0.00 0.00 0.00 49 1009.4
20260504184841 78 222 1.7 1.7 0.00 0.00 0.00 49 1009.4
20260504184337 78 351 0.9 1.7 0.00 0.00 0.00 48 1009.4
20260504183833 78 305 3.5 4.3 0.00 0.00 0.00 47 1009.7
20260504183330 78 302 2.6 2.6 0.00 0.00 0.00 48 1009.8
20260504182828 78 318 2.6 2.6 0.00 0.00 0.00 49 1009.7
20260504182325 78 142 2.6 2.6 0.00 0.00 0.00 48 1009.6
20260504181822 77 240 2.6 2.6 0.00 0.00 0.00 49 1009.7
20260504181319 77 190 2.6 2.6 0.00 0.00 0.00 48 1009.8
20260504180818 78 219 5.2 7.0 0.00 0.00 0.00 47 1009.9
20260504180316 78 304 2.6 2.6 0.00 0.00 0.00 48 1009.9
20260504175814 78 196 2.6 2.6 0.00 0.00 0.00 49 1009.8
20260504175311 78 230 2.6 2.6 0.00 0.00 0.00 48 1009.8
20260504174809 78 329 1.7 1.7 0.00 0.00 0.00 48 1010.0
20260504174306 77 283 2.6 2.6 0.00 0.00 0.00 48 1009.9
20260504173802 76 91 1.7 1.7 0.00 0.00 0.00 49 1010.0
20260504173259 77 285 3.5 4.3 0.00 0.00 0.00 49 1010.1
20260504172756 77 332 1.7 1.7 0.00 0.00 0.00 49 1010.4
20260504172253 77 334 2.6 2.6 0.00 0.00 0.00 49 1010.2
20260504171749 77 300 2.6 4.3 0.00 0.00 0.00 48 1010.5
20260504171246 77 249 3.5 4.3 0.00 0.00 0.00 49 1010.4
20260504170743 76 225 2.6 2.6 0.00 0.00 0.00 49 1010.6
20260504170240 76 176 3.5 5.2 0.00 0.00 0.00 49 1010.5
20260504160159 74 339 2.6 2.6 0.00 0.00 0.00 51 1011.1